Regional Weather Roundup
Issued by NWS

Home | Current Version | Previous Version | Graphics & Text | Print | Product List | Glossary On
Versions: 1 2 3 4 5 6 7 8 9 10 11 12 13 14 15 16 17 18 19 20 21 22 23 24 25 26 27 28 29 30 31 32 33 34 35 36 37 38 39 40 41 42 43 44 45 46 47 48 49 50
540
ASUS43 KOAX 310810
RWRNE

WEATHER ROUNDUP FOR NEBRASKA
NATIONAL WEATHER SERVICE OMAHA NE
300 AM CDT TUE MAY 31 2016

NOTES: SATELLITE DATA IS BEING USED TO AUGMENT CLOUD COVER ABOVE
       12000 FEET.
       "FAIR" INDICATES FEW OR NO CLOUDS BELOW 12,000 FEET WITH NO
       SIGNIFICANT WEATHER AND/OR OBSTRUCTIONS TO VISIBILITY.

  * THESE STATIONS DO NOT REPORT WEATHER SUCH AS RAIN...SNOW OR FOG.

NEZ001>004-019>022-054>056-310900-
NEBRASKA PANHANDLE

CITY           SKY/WX    TMP DP  RH WIND       PRES   REMARKS
SCOTTSBLUFF    LGT RAIN  52  43  71 NW6       30.12S
ALLIANCE       LGT RAIN  51  47  86 N8        30.08R
CHADRON        CLOUDY    51  46  83 SW9       30.06F
KIMBALL        CLOUDY    49  47  91 N14       30.11S
SIDNEY         MOCLDY    51  49  92 N18       30.07F
$$

NEZ057>060-069>072-079>082-310900-
SOUTHWEST NEBRASKA

CITY           SKY/WX    TMP DP  RH WIND       PRES   REMARKS
NORTH PLATTE   CLOUDY    56  51  84 W3        29.99R
IMPERIAL       PTCLDY    57  52  83 N8        30.04R
LEXINGTON      CLOUDY    57  55  90 W7        29.97R
MCCOOK         CLOUDY    56  53  90 NW12      29.98R
OGALLALA       CLOUDY    56  47  73 N10       30.03R
$$

NEZ005>010-023>029-035>040-094-310900-
NORTH CENTRAL NEBRASKA

CITY           SKY/WX    TMP DP  RH WIND       PRES   REMARKS
VALENTINE      CLOUDY    52  46  80 W7        29.97R
AINSWORTH      CLOUDY    55  48  77 NW13      29.98R
BROKEN BOW     PTCLDY    59  54  83 N16       29.94R
O`NEILL        CLOUDY    60  55  83 NW9       29.93R
ORD            CLOUDY    61  55  81 N10       29.92R
THEDFORD       CLOUDY    55  48  78 NW10      30.01R
$$

NEZ041-046>049-061>064-073>077-083>087-310900-
SOUTH CENTRAL NEBRASKA

CITY           SKY/WX    TMP DP  RH WIND       PRES   REMARKS
GRAND ISLAND   CLOUDY    61  58  90 W7        29.91R
AURORA         LGT RAIN  62  61  97 NW5       29.91R
HASTINGS       CLOUDY    60  58  92 W7        29.93R
HEBRON         CLOUDY    61  58  92 SE6       29.88F
HOLDREGE       CLOUDY    58  55  88 NW3       29.95R
KEARNEY *      CLOUDY    59  55  88 NW5       29.94R
YORK           LGT RAIN  63  59  88 E9        29.88F
$$

NEZ011>018-030>034-042>045-310900-
NORTHEAST NEBRASKA

CITY           SKY/WX    TMP DP  RH WIND       PRES   REMARKS
NORFOLK        CLOUDY    60  58  92 CALM      29.87F
ALBION         RAIN      59  57  91 NW8       29.89R
BLAIR          CLOUDY    68  62  81 S16       29.88F
FREMONT        CLOUDY    69  60  73 W5        29.88S
TEKAMAH        CLOUDY    64  58  80 W10       29.88R
WAYNE          LGT RAIN  62  59  90 NW15      29.87F
$$

NEZ050>053-065>068-078-088>093-310900-
SOUTHEAST NEBRASKA

CITY           SKY/WX    TMP DP  RH WIND       PRES   REMARKS
LINCOLN        CLOUDY    68  56  65 NW7       29.90F
OMAHA EPPLEY   CLOUDY    70  61  73 S12       29.89R
BEATRICE       CLOUDY    65  58  76 NW8       29.91F
FALLS CITY     LGT RAIN  65  60  84 S7        29.91S
NEBRASKA CITY  MOCLDY    66  62  85 SW12      29.92R
PLATTSMOUTH    CLOUDY    69  64  83 SW13      29.90R
$$

NEZ044-045-051>053-067-310900-
OMAHA AREA

CITY           SKY/WX    TMP DP  RH WIND       PRES   REMARKS
OMAHA EPPLEY   CLOUDY    70  61  73 S12       29.89R
BLAIR          CLOUDY    68  62  81 S16       29.88F
FREMONT        CLOUDY    69  60  73 W5        29.88S
MILLARD        CLOUDY    69  62  79 S6        29.88F
OFFUTT AFB     PTCLDY    70  63  78 S7        29.89R
PLATTSMOUTH    CLOUDY    69  64  83 SW13      29.90R
WAHOO          CLOUDY    69  56  62 SW9       29.88S
$$




USA.gov is the U.S. government's official web portal to all federal, state and local government web resources and services.